Simultaneous Nadir Overpasses (SNOs) Predictions

Prediction of SNOs between NOAA-15 and METOP-C Satellite Orbit:

Table of predicted SNOs for the next 14.0 days since TLE Epoch: 8/28/2021
Index Date (NOAA-15) Time (NOAA-15) Lat,Lon (NOAA-15) SZA (NOAA-15 ) Date (METOP-C) Time (METOP-C) Lat,Lon (METOP-C) SZA (METOP-C ) Distance(km) Time Diff (sec)
1 08/31/2021 05:06:52 -81.03, -39.42 105.69 08/31/2021 05:05:39 -81.03, -39.40 105.72 0.46 73
2 08/31/2021 05:57:22 81.04, 127.80 74.32 08/31/2021 05:56:21 81.02, 127.72 74.27 1.98 61
3 08/31/2021 06:47:54 -81.03, -64.62 105.66 08/31/2021 06:47:00 -81.04, -64.54 105.67 2.06 54
4 08/31/2021 07:38:24 81.04, 102.59 74.35 08/31/2021 07:37:42 81.03, 102.58 74.33 0.34 42
5 08/31/2021 08:28:57 -81.04, -90.20 105.66 08/31/2021 08:28:22 -81.03, -90.05 105.66 2.61 35
6 08/31/2021 09:19:25 81.03, 77.38 74.37 08/31/2021 09:19:02 81.04, 77.44 74.38 1.30 23
7 08/31/2021 10:09:58 -81.04,-115.40 105.63 08/31/2021 10:09:43 -81.03,-115.56 105.66 3.14 15
8 08/31/2021 11:00:28 81.05, 51.80 74.38 08/31/2021 11:00:24 81.03, 51.92 74.38 2.56 4
9 08/31/2021 11:51:00 -81.04,-140.60 105.60 08/31/2021 11:51:04 -81.04,-140.71 105.61 1.77 4
10 08/31/2021 12:41:30 81.05, 26.59 74.41 08/31/2021 12:41:45 81.04, 26.78 74.43 3.27 15
11 08/31/2021 13:32:02 -81.04,-165.81 105.57 08/31/2021 13:32:25 -81.04,-165.85 105.56 1.24 23
12 08/31/2021 14:22:32 81.04, 1.38 74.44 08/31/2021 14:23:07 81.04, 1.27 74.43 2.17 35
13 08/31/2021 15:13:05 -81.05, 168.62 105.56 08/31/2021 15:13:47 -81.04, 168.64 105.55 1.32 42
14 08/31/2021 16:03:34 81.04, -23.83 74.47 08/31/2021 16:04:28 81.04, -23.87 74.49 0.89 54
15 08/31/2021 16:54:07 -81.05, 143.42 105.53 08/31/2021 16:55:08 -81.05, 143.50 105.50 1.44 61



Historial Predications of SNOs between NOAA-15 and METOP-C
